Location: Petrozavodsk
(61.7955°N, 34.3748°E)
Time: 15:05:14
(UTC+03:00)

BlueWalker 3 - Pass Details

Date: 03 April 2023
Orbit: 493 x 513 km, 53.2° (Epoch: 09 June)

Event Time Altitude Azimuth Distance (km) Brightness Sun altitude
Rises 21:09:34 0° 245° (WSW) 2,622 6.0 -11.1°
Reaches altitude 10° 21:12:04 10° 231° (SW) 1,732 4.9 -11.4°
Maximum altitude 21:15:12 23° 177° (S) 1,108 3.3 -11.7°
Enters shadow 21:16:51 18° 142° (SE) 1,308 3.4 -11.8°
